W0WFX Weather Reports


time (UTC)temp
C
wind
direction
speed
KPH
gust
KPH
rain 1hr
cm
rain 24hr
cm
rain mn
cm
humidity
%
barometer
mb
20260507155819 16 0.0 0.0 0.00 0.00 0.00 57 1003.3
20260507155330 16 0.0 0.0 0.00 0.00 0.00 59 1003.3
20260507154816 16 0.0 0.0 0.00 0.00 0.00 61 1003.3
20260507154321 16 0.0 0.0 0.00 0.00 0.00 59 1003.4
20260507153826 16 0.0 0.0 0.00 0.00 0.00 59 1003.4
20260507153339 16 0.0 0.0 0.00 0.00 0.00 62 1003.4
20260507152825 15 0.0 0.0 0.00 0.00 0.00 60 1003.4
20260507152337 15 0.0 0.0 0.00 0.00 0.00 61 1003.4
20260507151823 15 0.0 0.0 0.00 0.00 0.00 62 1003.4
20260507151349 15 0.0 0.0 0.00 0.00 0.00 62 1003.4
20260507150813 15 0.0 0.0 0.00 0.00 0.00 62 1003.4
20260507150326 15 0.0 0.0 0.00 0.00 0.00 65 1003.4
20260507145812 15 0.0 0.0 0.00 0.00 0.00 64 1003.4
20260507145318 14 0.0 0.0 0.00 0.00 0.00 64 1003.4
20260507144827 14 0.0 0.0 0.00 0.00 0.00 67 1003.4
20260507144329 13 0.0 0.0 0.00 0.00 0.00 65 1003.5
20260507143812 13 0.0 0.0 0.00 0.00 0.00 65 1003.5
20260507143324 13 0.0 0.0 0.00 0.00 0.00 66 1003.5
20260507142829 13 0.0 0.0 0.00 0.00 0.00 67 1003.5
20260507142315 13 0.0 0.0 0.00 0.00 0.00 70 1003.5
20260507141825 13 0.0 0.0 0.00 0.00 0.00 68 1003.5
20260507141352 13 0.0 0.0 0.00 0.00 0.00 72 1003.7
20260507140816 12 0.0 0.0 0.00 0.00 0.00 71 1003.7
20260507140327 12 0.0 0.0 0.00 0.00 0.00 71 1003.7
20260507135814 12 0.0 0.0 0.00 0.00 0.00 73 1003.7
20260507135325 12 0.0 0.0 0.00 0.00 0.00 74 1003.7
20260507134830 11 0.0 0.0 0.00 0.00 0.00 75 1003.7
20260507134336 11 0.0 0.0 0.00 0.00 0.00 76 1003.9
20260507133827 11 0.0 0.0 0.00 0.00 0.00 76 1003.9
20260507133313 11 0.0 0.0 0.00 0.00 0.00 77 1003.9
20260507132816 11 0.0 0.0 0.00 0.00 0.00 79 1004.0
20260507132327 10 0.0 0.0 0.00 0.00 0.00 80 1004.0
20260507131852 10 0.0 0.0 0.00 0.00 0.00 81 1004.0
20260507131318 10 0.0 0.0 0.00 0.00 0.00 81 1004.0
20260507130829 9 0.0 0.0 0.00 0.00 0.00 81 1004.0
20260507130335 8 0.0 0.0 0.00 0.00 0.00 81 1004.0
20260507125825 8 0.0 0.0 0.00 0.00 0.00 83 1003.9
20260507125352 8 0.0 0.0 0.00 0.00 0.00 84 1003.9
20260507124815 8 0.0 0.0 0.00 0.00 0.00 84 1003.9
20260507124347 7 0.0 0.0 0.00 0.00 0.00 84 1003.9
20260507123834 7 0.0 0.0 0.00 0.00 0.00 85 1003.9
20260507123319 7 0.0 0.0 0.00 0.00 0.00 85 1003.9
20260507122825 7 0.0 0.0 0.00 0.00 0.00 85 1003.9
20260507122331 7 0.0 0.0 0.00 0.00 0.00 85 1003.9
20260507121817 7 0.0 0.0 0.00 0.00 0.00 85 1003.9
20260507121329 6 0.0 0.0 0.00 0.00 0.00 86 1003.5
20260507120815 6 0.0 0.0 0.00 0.00 0.00 86 1003.5
20260507120321 6 0.0 0.0 0.00 0.00 0.00 86 1003.5
20260507115833 6 0.0 0.0 0.00 0.00 0.00 87 1003.4
20260507115320 6 0.0 0.0 0.00 0.00 0.00 87 1003.4
20260507114825 6 0.0 0.0 0.00 0.00 0.00 87 1003.4
20260507114338 6 0.0 0.0 0.00 0.00 0.00 87 1003.4
20260507113842 6 0.0 0.0 0.00 0.00 0.00 86 1003.4
20260507113327 6 0.0 0.0 0.00 0.00 0.00 86 1003.4
20260507112813 6 0.0 0.0 0.00 0.00 0.00 86 1003.4
20260507112326 6 0.0 0.0 0.00 0.00 0.00 87 1003.4
20260507111812 6 0.0 0.0 0.00 0.00 0.00 86 1003.4
20260507111324 6 0.0 0.0 0.00 0.00 0.00 87 1003.4
20260507110829 6 0.0 0.0 0.00 0.00 0.00 87 1003.4
20260507110316 6 0.0 0.0 0.00 0.00 0.00 86 1003.4
20260507105821 6 0.0 0.0 0.00 0.00 0.00 86 1003.4
20260507105332 6 0.0 0.0 0.00 0.00 0.00 86 1003.4
20260507104816 6 0.0 0.0 0.00 0.00 0.00 86 1003.4
20260507104328 6 0.0 0.0 0.00 0.00 0.00 85 1003.4
20260507103819 6 0.0 0.0 0.00 0.00 0.00 85 1003.4
20260507103325 6 0.0 0.0 0.00 0.00 0.00 85 1003.4
20260507102830 6 0.0 0.0 0.00 0.00 0.00 85 1003.5
20260507102323 6 0.0 0.0 0.00 0.00 0.00 85 1003.5
20260507101848 6 0.0 0.0 0.00 0.00 0.00 84 1003.5
20260507101312 6 0.0 0.0 0.00 0.00 0.00 84 1003.5
20260507100845 6 0.0 0.0 0.00 0.00 0.00 83 1003.5
20260507100330 6 0.0 0.0 0.00 0.00 0.00 83 1003.5
20260507095823 6 0.0 0.0 0.00 0.00 0.00 83 1003.6
20260507095347 6 0.0 0.0 0.00 0.00 0.00 83 1003.6
20260507094812 6 0.0 0.0 0.00 0.00 0.00 83 1003.6
20260507094325 6 0.0 0.0 0.00 0.00 0.00 83 1003.8
20260507093851 6 0.0 0.0 0.00 0.00 0.00 83 1003.8
20260507093315 7 0.0 0.0 0.00 0.00 0.00 83 1003.8
20260507092828 7 0.0 0.0 0.00 0.00 0.00 83 1003.7
20260507092339 7 0.0 0.0 0.00 0.00 0.00 83 1003.7
20260507091823 7 0.0 0.0 0.00 0.00 0.00 83 1003.7
20260507091328 7 0.0 0.0 0.00 0.00 0.00 83 1003.5
20260507090812 7 0.0 0.0 0.00 0.00 0.00 83 1003.5
20260507090325 7 0.0 0.0 0.00 0.00 0.00 83 1003.5
20260507085811 7 0.0 0.0 0.00 0.00 0.00 83 1003.4
20260507085317 7 0.0 0.0 0.00 0.00 0.00 82 1003.4
20260507084828 7 0.0 0.0 0.00 0.00 0.00 82 1003.4
20260507084315 7 0.0 0.0 0.00 0.00 0.00 82 1003.4
20260507083821 7 0.0 0.0 0.00 0.00 0.00 82 1003.4
20260507083331 7 0.0 0.0 0.00 0.00 0.00 83 1003.4
20260507082837 7 0.0 0.0 0.00 0.00 0.00 84 1003.4
20260507082328 7 0.0 0.0 0.00 0.00 0.00 85 1003.4
20260507081812 6 0.0 0.0 0.00 0.00 0.00 86 1003.4
20260507081319 6 0.0 0.0 0.00 0.00 0.00 87 1003.4
20260507080844 6 0.0 0.0 0.00 0.00 0.00 88 1003.4
20260507080336 6 0.0 0.0 0.00 0.00 0.00 87 1003.4
20260507075842 6 0.0 0.0 0.00 0.00 0.00 87 1003.4
20260507075327 6 0.0 0.0 0.00 0.00 0.00 87 1003.4
20260507074820 6 0.0 0.0 0.00 0.00 0.00 87 1003.4
20260507074324 6 0.0 0.0 0.00 0.00 0.00 86 1003.8
20260507073837 7 0.0 0.0 0.00 0.00 0.00 86 1003.8
20260507073321 7 0.0 0.0 0.00 0.00 0.00 87 1003.8
20260507072827 7 0.0 0.0 0.00 0.00 0.00 86 1003.9
20260507072313 7 0.0 0.0 0.00 0.00 0.00 86 1003.9
20260507071826 7 0.0 0.0 0.00 0.00 0.00 87 1003.9
20260507071351 7 0.0 0.0 0.00 0.00 0.00 87 1004.0
20260507070842 7 0.0 0.0 0.00 0.00 0.00 88 1004.0
20260507070348 7 0.0 0.0 0.00 0.00 0.00 88 1004.0
20260507065819 7 0.0 0.0 0.00 0.00 0.00 89 1004.1
20260507065324 7 0.0 0.0 0.00 0.00 0.00 90 1004.1
20260507064836 6 0.0 0.0 0.00 0.00 0.00 90 1004.1
20260507064322 6 0.0 0.0 0.00 0.00 0.00 90 1004.4
20260507063836 6 0.0 0.0 0.00 0.00 0.00 90 1004.4
20260507063320 6 0.0 0.0 0.00 0.00 0.00 90 1004.4
20260507062827 6 0.0 0.0 0.00 0.00 0.00 90 1004.3
20260507062333 6 0.0 0.0 0.00 0.00 0.00 90 1004.3
20260507061822 6 0.0 0.0 0.00 0.00 0.00 90 1004.3
20260507061327 6 0.0 0.0 0.00 0.00 0.00 90 1004.4
20260507060819 6 0.0 0.0 0.00 0.00 0.00 90 1004.4
20260507060322 6 0.0 0.0 0.00 0.00 0.00 89 1004.4
20260507055849 6 0.0 0.0 0.00 0.00 0.00 89 1004.4
20260507055314 6 0.0 0.0 0.00 0.00 0.00 89 1004.4
20260507054820 6 0.0 0.0 0.00 0.00 0.00 88 1004.4
20260507054324 6 0.0 0.0 0.00 0.00 0.00 88 1004.4
20260507053816 6 0.0 0.0 0.00 0.00 0.00 88 1004.4
20260507053320 6 0.0 0.0 0.00 0.00 0.00 88 1004.4
20260507052825 6 0.0 0.0 0.00 0.00 0.00 88 1004.2
20260507052337 6 0.0 0.0 0.00 0.00 0.00 88 1004.2
20260507051822 6 0.0 0.0 0.00 0.00 0.00 87 1004.2
20260507051329 6 0.0 0.0 0.00 0.00 0.00 86 1004.1
20260507050819 6 0.0 0.0 0.00 0.00 0.00 87 1004.1
20260507050319 6 0.0 0.0 0.00 0.00 0.00 87 1004.1
20260507045851 6 0.0 0.0 0.00 0.00 0.03 86 1004.4
20260507045317 7 0.0 0.0 0.00 0.00 0.03 86 1004.4
20260507044822 7 0.0 0.0 0.00 0.00 0.03 86 1004.4
20260507044316 7 0.0 0.0 0.00 0.00 0.03 85 1004.4
20260507043821 6 0.0 0.0 0.00 0.00 0.03 84 1004.4
20260507043325 6 0.0 0.0 0.00 0.00 0.03 84 1004.4
20260507042838 7 0.0 0.0 0.00 0.00 0.03 87 1004.4
20260507042324 7 0.0 0.0 0.00 0.00 0.03 86 1004.4
20260507041831 7 0.0 0.0 0.00 0.00 0.03 86 1004.4
20260507041316 7 0.0 0.0 0.00 0.00 0.03 87 1004.4
20260507040829 7 0.0 0.0 0.00 0.00 0.03 87 1004.4
20260507040315 7 0.0 0.0 0.00 0.00 0.03 86 1004.4
20260507035819 7 0.0 0.0 0.00 0.00 0.03 85 1004.5
20260507035326 7 0.0 0.0 0.00 0.00 0.03 85 1004.5
20260507034837 7 0.0 0.0 0.00 0.00 0.03 85 1004.5
20260507034324 7 0.0 0.0 0.00 0.00 0.03 85 1004.5
20260507033830 7 0.0 0.0 0.00 0.00 0.03 84 1004.5
20260507033316 7 0.0 0.0 0.00 0.00 0.03 83 1004.5
20260507032826 7 0.0 0.0 0.00 0.00 0.03 82 1004.5
20260507032312 7 0.0 0.0 0.00 0.00 0.03 82 1004.5
20260507031818 7 0.0 0.0 0.00 0.00 0.03 82 1004.5
20260507031329 7 0.0 0.0 0.00 0.00 0.03 81 1004.4
20260507030816 8 0.0 0.0 0.00 0.00 0.03 81 1004.4
20260507030319 8 0.0 0.0 0.00 0.00 0.03 81 1004.4
20260507025851 8 0.0 0.0 0.00 0.00 0.03 80 1004.4
20260507025315 8 0.0 0.0 0.00 0.00 0.03 80 1004.4
20260507024828 8 0.0 0.0 0.00 0.00 0.03 80 1004.4
20260507024353 8 0.0 0.0 0.00 0.00 0.03 79 1004.4
20260507023817 8 0.0 0.0 0.00 0.00 0.03 78 1004.4
20260507023328 9 0.0 0.0 0.00 0.00 0.03 77 1004.4
20260507022814 9 0.0 0.0 0.00 0.00 0.03 74 1004.2
20260507022321 9 0.0 0.0 0.00 0.00 0.03 72 1004.2
20260507021831 9 0.0 0.0 0.00 0.00 0.03 68 1004.2
20260507021316 9 0.0 0.0 0.00 0.00 0.03 69 1003.9
20260507020822 9 0.0 0.0 0.00 0.00 0.03 67 1003.9
20260507020334 10 0.0 0.0 0.00 0.00 0.03 70 1003.9
20260507015820 10 0.0 0.0 0.00 0.00 0.03 70 1003.8
20260507015326 10 0.0 0.0 0.00 0.00 0.03 72 1003.8
20260507014815 10 0.0 0.0 0.00 0.00 0.03 65 1003.8
20260507014327 11 0.0 0.0 0.00 0.00 0.03 67 1003.7
20260507013812 11 0.0 0.0 0.00 0.00 0.03 58 1003.7
20260507013317 11 0.0 0.0 0.00 0.00 0.03 57 1003.7
20260507012824 11 0.0 0.0 0.00 0.00 0.03 54 1003.6
20260507012338 12 0.0 0.0 0.00 0.00 0.03 57 1003.6
20260507011821 12 0.0 0.0 0.00 0.00 0.03 55 1003.6
20260507011331 12 0.0 0.0 0.00 0.00 0.03 56 1003.5
20260507010818 13 0.0 0.0 0.00 0.00 0.03 54 1003.5
20260507010323 13 0.0 0.0 0.00 0.00 0.03 53 1003.5
20260507005817 13 0.0 0.0 0.00 0.00 0.03 53 1003.4
20260507005322 14 0.0 0.0 0.00 0.00 0.03 50 1003.4
20260507004827 15 0.0 0.0 0.00 0.00 0.03 50 1003.4
20260507004340 15 0.0 0.0 0.00 0.00 0.03 45 1003.4
20260507003824 15 0.0 0.0 0.00 0.00 0.03 44 1003.4
20260507003337 15 0.0 0.0 0.00 0.00 0.03 43 1003.4
20260507002840 16 0.0 0.0 0.00 0.00 0.03 45 1003.5
20260507002351 16 0.0 0.0 0.00 0.00 0.03 48 1003.5
20260507001816 16 0.0 0.0 0.00 0.00 0.03 42 1003.5
20260507001321 16 0.0 0.0 0.00 0.00 0.03 43 1003.4
20260507000814 16 0.0 0.0 0.00 0.00 0.03 42 1003.4
20260507000321 16 0.0 0.0 0.00 0.00 0.03 42 1003.4
20260506235825 16 0.0 0.0 0.00 0.00 0.03 41 1003.3
20260506235336 16 0.0 0.0 0.00 0.00 0.03 44 1003.3
20260506234821 16 0.0 0.0 0.00 0.00 0.03 44 1003.3
20260506234328 16 0.0 0.0 0.00 0.00 0.03 40 1003.4
20260506233813 16 0.0 0.0 0.00 0.00 0.03 44 1003.4
20260506233325 16 0.0 0.0 0.00 0.00 0.03 43 1003.4
20260506232832 16 0.0 0.0 0.00 0.00 0.03 41 1003.4
20260506232317 16 0.0 0.0 0.00 0.00 0.03 42 1003.4
20260506231823 16 0.0 0.0 0.00 0.00 0.03 39 1003.4
20260506231335 16 0.0 0.0 0.00 0.00 0.03 42 1003.4
20260506230819 16 0.0 0.0 0.00 0.00 0.03 39 1003.4
20260506230330 16 0.0 0.0 0.00 0.00 0.03 42 1003.4
20260506225815 16 0.0 0.0 0.00 0.00 0.03 43 1003.5
20260506225321 16 0.0 0.0 0.00 0.00 0.03 44 1003.5
20260506224832 16 0.0 0.0 0.00 0.00 0.03 41 1003.5
20260506224317 16 0.0 0.0 0.00 0.00 0.03 41 1003.5
20260506223822 16 0.0 0.0 0.00 0.00 0.03 42 1003.5
20260506223331 16 0.0 0.0 0.00 0.00 0.03 44 1003.5
20260506222837 16 0.0 0.0 0.00 0.00 0.03 37 1003.4
20260506222323 16 0.0 0.0 0.00 0.00 0.03 39 1003.4
20260506221834 16 0.0 0.0 0.00 0.00 0.03 42 1003.4
20260506221320 17 0.0 0.0 0.00 0.00 0.03 42 1003.5
20260506220827 17 0.0 0.0 0.00 0.00 0.03 42 1003.5
20260506220332 16 0.0 0.0 0.00 0.00 0.03 44 1003.5
20260506215822 16 0.0 0.0 0.00 0.00 0.03 41 1003.4
20260506215354 16 0.0 0.0 0.00 0.00 0.03 40 1003.4
20260506214819 16 0.0 0.0 0.00 0.00 0.03 41 1003.4
20260506214324 16 0.0 0.0 0.00 0.00 0.03 45 1003.5
20260506213834 16 0.0 0.0 0.00 0.00 0.03 40 1003.5
20260506213317 17 0.0 0.0 0.00 0.00 0.03 39 1003.5
20260506212850 17 0.0 0.0 0.00 0.00 0.03 45 1003.7
20260506212314 16 0.0 0.0 0.00 0.00 0.03 48 1003.7
20260506211846 16 0.0 0.0 0.00 0.00 0.03 42 1003.7
20260506211331 16 0.0 0.0 0.00 0.00 0.03 38 1003.9
20260506210821 16 0.0 0.0 0.00 0.00 0.03 45 1003.9
20260506210346 16 0.0 0.0 0.00 0.00 0.03 42 1003.9
20260506205838 16 0.0 0.0 0.00 0.00 0.03 42 1003.9
20260506205324 16 0.0 0.0 0.00 0.00 0.03 42 1003.9
20260506204829 16 0.0 0.0 0.00 0.00 0.03 44 1003.9
20260506204341 16 0.0 0.0 0.00 0.00 0.03 44 1004.0
20260506203825 16 0.0 0.0 0.00 0.00 0.03 46 1004.0
20260506203337 16 0.0 0.0 0.00 0.00 0.03 47 1004.0
20260506202822 16 0.0 0.0 0.00 0.00 0.03 48 1004.5
20260506202334 16 0.0 0.0 0.00 0.00 0.03 43 1004.5
20260506201819 16 0.0 0.0 0.00 0.00 0.03 47 1004.5
20260506201324 16 0.0 0.0 0.00 0.00 0.03 45 1004.5
20260506200830 16 0.0 0.0 0.00 0.00 0.03 44 1004.5
20260506200315 16 0.0 0.0 0.00 0.00 0.00 49 1004.5
20260506195827 16 0.0 0.0 0.00 0.00 0.00 43 1004.5
20260506195329 16 0.0 0.0 0.00 0.00 0.00 46 1004.5
20260506194816 16 0.0 0.0 0.00 0.00 0.00 53 1004.5
20260506194328 15 0.0 0.0 0.00 0.00 0.00 49 1004.8
20260506193835 16 0.0 0.0 0.00 0.00 0.00 44 1004.8
20260506193346 15 0.0 0.0 0.00 0.00 0.00 44 1004.8
20260506192832 16 0.0 0.0 0.00 0.00 0.00 44 1004.8
20260506192312 16 0.0 0.0 0.00 0.00 0.00 50 1004.8
20260506191825 16 0.0 0.0 0.00 0.00 0.00 48 1004.8
20260506191331 16 0.0 0.0 0.00 0.00 0.00 48 1004.9
20260506190816 16 0.0 0.0 0.00 0.00 0.00 47 1004.9
20260506190322 16 0.0 0.0 0.00 0.00 0.00 49 1004.9
20260506185833 16 0.0 0.0 0.00 0.00 0.00 44 1004.6
20260506185323 16 0.0 0.0 0.00 0.00 0.00 45 1004.6
20260506184827 15 0.0 0.0 0.00 0.00 0.00 48 1004.6
20260506184338 15 0.0 0.0 0.00 0.00 0.00 51 1004.7
20260506183823 16 0.0 0.0 0.00 0.00 0.00 46 1004.7
20260506183336 16 0.0 0.0 0.00 0.00 0.00 47 1004.7
20260506182842 16 0.0 0.0 0.00 0.00 0.00 51 1005.0
20260506182327 16 0.0 0.0 0.00 0.00 0.00 49 1005.0
20260506181813 16 0.0 0.0 0.00 0.00 0.00 46 1005.0
20260506181326 16 0.0 0.0 0.00 0.00 0.00 43 1005.0
20260506180830 16 0.0 0.0 0.00 0.00 0.00 49 1005.0
20260506180317 15 0.0 0.0 0.00 0.00 0.00 49 1005.0
20260506175829 15 0.0 0.0 0.00 0.00 0.00 46 1005.0
20260506175315 15 0.0 0.0 0.00 0.00 0.00 45 1005.0
20260506174822 15 0.0 0.0 0.00 0.00 0.00 42 1005.0
20260506174332 15 0.0 0.0 0.00 0.00 0.00 55 1005.2
20260506173836 15 0.0 0.0 0.00 0.00 0.00 53 1005.2
20260506173325 15 0.0 0.0 0.00 0.00 0.00 48 1005.2
20260506172829 15 0.0 0.0 0.00 0.00 0.00 53 1005.1
20260506172315 15 0.0 0.0 0.00 0.00 0.00 57 1005.1
20260506171827 15 0.0 0.0 0.00 0.00 0.00 55 1005.1
20260506171359 15 0.0 0.0 0.00 0.00 0.00 50 1004.9
20260506170824 15 0.0 0.0 0.00 0.00 0.00 51 1004.9
20260506170330 15 0.0 0.0 0.00 0.00 0.00 53 1004.9
20260506165834 15 0.0 0.0 0.00 0.00 0.00 55 1004.5
20260506165325 14 0.0 0.0 0.00 0.00 0.00 51 1004.5
20260506164830 14 0.0 0.0 0.00 0.00 0.00 53 1004.5
20260506164342 14 0.0 0.0 0.00 0.00 0.00 56 1004.7
20260506163846 13 0.0 0.0 0.00 0.00 0.00 59 1004.7
20260506163338 13 0.0 0.0 0.00 0.00 0.00 57 1004.7
20260506162822 14 0.0 0.0 0.00 0.00 0.00 55 1004.5
20260506162333 14 0.0 0.0 0.00 0.00 0.00 57 1004.5
20260506161820 13 0.0 0.0 0.00 0.00 0.00 60 1004.5
20260506161320 13 0.0 0.0 0.00 0.00 0.00 61 1004.3
20260506160827 13 0.0 0.0 0.00 0.00 0.00 63 1004.3
20260506160337 13 0.0 0.0 0.00 0.00 0.00 62 1004.3